www.pogodaiklimat.ru

Погода и климат >> Архив погоды >> Тунис >> Kasserine


ПОГОДА в Kasserine

  • Прогноз погоды в Kasserine
  • Монитор погоды в Kasserine
  • Климат города

АРХИВ ПОГОДЫ в Kasserine

Время (UTC), дата Ветер
(напр.,м/с)
 
Видим.   Явления Облачность Т
(С)
Тd
(С)
f
(%)
Тe
(С)
Тes
(С)
Комфортность P
(гПа)
Po
(гПа)
Тmin
(С)
Tmax
(С)
R
(мм)
R24
(мм)
S
(см)
18 10.10 0-6
{11}
10 км 5/0
[Ac und]
+22.0 +17.2 74 1015.1 936.6 +25.6
21 10.10 0-5
{13}
н/о н/о +16.0 +16.0 100 1019.0 938.6 9
00 11.10 0-3
{13}
н/о н/о +15.0 +15.0 100 1020.0 939.2 4
03 11.10 0-8
{9}
н/о н/о +16.6 +15.6 94 1016.8 936.7 0.2
06 11.10 0-3
{9}
10 км 6/1 1000 м
[Cu med, cong Ac und Ci sp]
+15.8 +15.2 96 1018.0 937.6 +15.0 13
09 11.10 0-5
{12}
10 км 6/3 1500 м
[Sc Ac und]
+19.0 +16.4 85 1017.6 938.1
12 11.10 0-7
{12}
10 км 8/3 1500 м
[Sc Ac und Ci sp]
+24.2 +16.7 63 1015.0 937.0
15 11.10 0-8
{8}
10 км 8/3 1500 м
[Sc Ac und Ci sp]
+24.3 +16.6 62 1014.8 936.9
21 11.10 штиль 0
{4}
н/о н/о +18.9 +18.7 99 +20 +20 1018.8 939.3
00 12.10 штиль 0
{4}
н/о н/о +17.5 +17.5 100 +17 +17 1019.5 939.5
03 12.10 0-3
{3}
н/о н/о +15.2 +15.2 100 1020.2 939.4 0.2
06 12.10 0-3
{3}
10 км 6/1 1500 м
[Sc Ac und]
+15.0 +15.0 100 1021.2 940.3 +14.7 0.2
09 12.10 0-8
{9}
10 км 4/0
[Ac und Ci sp]
+21.6 +17.0 75 1020.6 941.5
12 12.10 0-7
{13}
10 км 5/1 1000 м
[Cu med, cong Ac und Ci sp]
+24.4 +16.1 60 1019.1 940.8
15 12.10 0-9
{10}
10 км 6/3 1000 м
[Cu med, cong Ac und]
+24.8 +15.1 55 1018.1 940.0
18 12.10 0-5
{10}
10 км 6/1 1500 м
[Sc Ac und]
+21.1 +16.3 74 1020.1 940.9 +25.3
21 12.10 0-6
{6}
н/о н/о +19.1 +16.5 85 1021.6 941.8
03 13.10 0-3
{6}
н/о н/о +15.3 +14.8 97 1020.9 940.1
06 13.10 0-7
{8}
10 км 8/1 1000 м
[Cu med, cong Ac und]
+15.6 +14.8 95 1020.2 939.5 +14.4
09 13.10 штиль 0-10
{12}
50 км ?/? +18.9 +15.2 79 +20 +20 1019.3 939.6
12 13.10 0-7
{12}
10 км 6/1 1500 м
[Sc Ac und]
+21.0 +15.1 69 1017.4 938.4
15 13.10 0-7
{10}
10 км 8/5 1000 м
[Cu Sc Ac trans]
+22.2 +14.8 63 1015.3 936.7
18 13.10 0-4
{10}
10 км 6/3 1500 м
[Sc Ac trans]
+18.5 +14.4 77 1016.9 937.2 +22.9
21 13.10 0-3
{5}
н/о н/о +16.8 +14.8 88 1017.1 937.0
00 14.10 0-6
{6}
н/о н/о +15.9 +14.8 93 1016.7 936.4
03 14.10 0-3
{6}
н/о н/о +14.4 +13.9 97 1016.1 935.4
06 14.10 штиль 0
{6}
10 км 5/1 1500 м
[Sc Ci sp]
+13.4 +13.4 100 +13 +13 1015.9 934.9 +13.1
09 14.10 0-5
{8}
10 км 6/3 1500 м
[Sc Ci sp]
+18.4 +14.3 77 1015.2 935.6
12 14.10 штиль 0
{8}
10 км 4/4 1000 м
[Cu Sc]
+22.3 +14.4 61 +26 +34 жарко 1012.1 933.8
15 14.10 штиль 0
{4}
10 км 4/1 1000 м
[Cu med, cong Ac und]
+22.8 +13.6 56 +26 +29 жарко 1010.4 932.3
18 14.10 0-3
{7}
10 км 9/5 1000 м
[Cu Sc Ac und]
+20.2 +14.8 71 1012.1 933.3 +23.9
21 14.10 штиль 0
{4}
н/о н/о +17.3 +16.0 92 +17 +17 1014.1 934.4
00 15.10 штиль 0
{4}
н/о н/о +15.2 +15.2 100 +15 +15 1015.1 934.7
03 15.10 0-4
{4}
н/о н/о +13.7 +13.7 100 1014.5 933.7 0.2
06 15.10 0-4
{5}
10 км 6/1 1500 м
[Sc Ac trans Ci sp]
+14.1 +14.1 100 1014.3 933.7 +13.5
09 15.10 0-9
{9}
10 км 5/0
[Ac trans Ci sp]
+21.5 +14.6 65 1013.3 934.7
12 15.10 0-12
{12}
10 км 9/3 1500 м
[Sc Ac trans Ci sp]
+24.6 +13.5 50 1011.5 933.8
15 15.10 0-12
{15}
10 км 9/3 1500 м
[Sc Ac und Ci sp]
+24.0 +12.6 49 1011.3 933.4
18 15.10 штиль 0
{15}
10 км 8/1 1500 м
[Sc Ac und Ci sp]
+20.3 +15.1 72 +23 +23 комфорт 1013.3 934.4 +25.3
21 15.10 0-4
{8}
н/о н/о +19.9 +14.7 72 1014.5 935.4
00 16.10 0-4
{8}
н/о н/о +18.4 +15.5 83 1014.3 934.9
06 16.10 0-6
{13}
10 км 9/4 1500 м
[Sc Ac und]
+19.2 +11.7 62 1014.2 934.9 +21.4
09 16.10 0-6
{13}
10 км {дождь} 10/6 1500 м
[Sc Ac trans]
+15.9 +15.3 96 1017.0 936.7 3
12 16.10 0-6
{13}
10 км 10/5 1500 м
[Sc Ac trans]
+17.3 +15.8 91 1015.9 936.1
15 16.10 0-3
{7}
10 км 10/4 1500 м
[Sc Ac trans]
+18.5 +15.6 83 1014.4 935.0
18 16.10 штиль 0
{7}
10 км 9/4 1500 м
[Sc Ac und]
+17.4 +15.9 91 +17 +17 1015.3 935.5 +19.2
21 16.10 штиль 0
{5}
н/о н/о +17.0 +15.0 88 +17 +17 1015.3 935.4
00 17.10 штиль 0
{5}
н/о н/о +17.0 +16.7 98 +17 +17 1014.7 934.9 0.4
03 17.10 0-8
{11}
н/о н/о +16.8 +16.8 100 1011.4 931.8
06 17.10 0-4
{11}
10 км гроза с градом 10/1 900 м
[Cb cap Ac und]
+17.3 +17.3 100 1011.1 931.7 +16.3
09 17.10 0-5
{15}
10 км гроза с градом {ливн. осадки} 9/1 900 м
[Cb cap Ac und]
+13.0 +13.0 100 1011.9 931.1 28
12 17.10 0-11
{15}
10 км {гроза, дождь} 9/6 1500 м
[Sc Ac und]
+17.3 +15.3 88 1008.6 929.3 5
15 17.10 0-7
{12}
10 км 9/6 1500 м
[Sc Ac und]
+17.9 +16.8 93 1006.1 927.2

 

Местоположение метеостанции Kasserine (Тунис): широта 35.15 долгота 8.45 высота над уровнем моря 707 м.

В архиве по умолчанию представлена погода в Kasserine за последнюю неделю. Архивные данные за месяц целиком и за предыдущие месяцы, начиная с января 2011 года, Вы можете получить, выбрав интересующий диапазон дат из раскрывающегося списка и нажав кнопку "Ввод!".


*Определитесь, кто Вы:
робот инопланетянин человек

Внимание! Время в таблицах - всемирное. Для получения местного времени необходимо прибавить поправку, которая в Kasserine равна 1 ч.

Смотрите также архив погоды в соседних городах и на ближайших метеорологических станциях:

Погода в Tebessa (Алжир) (42 км)
Погода в Thala (Тунис) (49 км)
Погода в Gafsa (Тунис) (88 км)
Погода в Sidi Bouzid (Тунис) (95 км)
Погода в El Kef (Тунис) (111 км)
Погода в Khenchella (Алжир) (129 км)
Погода в Siliana (Тунис) (132 км)
Погода в Souk Ahras (Алжир) (133 км)
Погода в Tozeur (Тунис) (139 км)
Погода в Oum El Bouaghi (Алжир) (145 км)

Пояснения к столбцам:

Ветер - указаны скорость ветра в м/с - средняя за 10 мин, порывы в срок и между сроками (в фигурных скобках) и направление, откуда дует ветер: С - северный, СВ - северо-восточный, В - восточный, ЮВ - юго-восточный, Ю - южный, ЮЗ - юго-западный, З - западный, СЗ - северо-западный.
Видимость - горизонтальная дальность видимости в метрах или километрах. При видимости от 1 до 10 км при отсутствии осадков обычно наблюдается дымка, при ухудшении видимости до 1 км и менее - туман. В сухую погоду видимость может ухудшаться дымом, пылью или мглою.
Явления - указаны атмосферные явления, наблюдавшиеся в срок или в последний час перед сроком; фигурными скобками обозначены явления, наблюдавшиеся между сроками (за 1-3 часа до срока); квадратными скобками обозначены град или гололедные отложения с указанием их диаметра в мм.
Облачность - указаны через наклонную черту общая и нижняя облачность в баллах и высота нижней границы облаков в метрах; квадратными скобками обозначены формы облаков: Ci - перистые, Cs - перисто-слоистые, Cc - перисто-кучевые, Ac - высококучевые, As - высокослоистые, Sc - слоисто-кучевые, Ns - слоисто-дождевые, Cu - кучевые, Cb - кучево-дождевые. Подробнее классификацию облаков см. в Атласе облаков (PDF).
T - Температура воздуха - температура, измеренная на высоте 2 м над землей.
Td - Температура точки росы - температура, при понижении до которой содержащийся в воздухе водяной пар достигнет насыщения.
f - Относительная влажность воздуха - влажноcть воздуха, измеренная на высоте 2 м над землей.
Te - Эффективная температура - температура, которую ощущает одетый по сезону человек в тени. Характеристика душности погоды. При расчете учитывается влияние влажности воздуха и скорости ветра на теплоощущения человека.
Tes - Эффективная температура на солнце - температура, которую ощущает человек, с поправкой на солнечный нагрев. Характеристика знойности погоды. Зависит от высоты солнца над горизонтом, облачности и скорости ветра. Ночью, в пасмурную погоду, а также при ветре 12 м/с и более поправка равна нулю.
P - Атмосферное давление - приведенное к уровню моря атмосферное давление.
Po - Атмосферное давление - измеренное на уровне метеостанции атмосферное давление.
Tmin - Минимальная температура - минимум температуры воздуха на высоте 2 м над землей.
Tmax - Максимальная температура - максимум температуры воздуха на высоте 2 м над землей.
R - Количество осадков - Количество выпавших осадков за период времени, мм. При наведении курсора мыши на число - период времени, за который выпало указанное количество осадков.
R24 - Количество осадков - Количество выпавших осадков за 24 часа, мм.
S - Снежный покров - Высота снежного покрова, см. При наведении курсора мыши на число - состояние снежного покрова и степень покрытия местности в баллах.